Location: Belfast
(54.5830°N, 5.9330°W)
Time: 02:14:05
(UTC+00:00)

ISS - Pass Details

Date: 01 February 2021
Orbit: 417 x 422 km, 51.6° (Epoch: 25 February)

Event Time Altitude Azimuth Distance (km) Brightness Sun altitude
Rises 19:23:37 0° 276° (W) 2,379 1.6 -20.3°
Reaches altitude 10° 19:26:01 10° 261° (W) 1,512 0.2 -20.7°
Maximum altitude 19:28:41 21° 209° (SSW) 996 -1.6 -21.1°
Enters shadow 19:29:35 19° 186° (S) 1,067 -1.7 -21.2°
